ARIANE 5 R/B, 40148

Orbit data source: Space-Track

ARIANE 5 R/B, 40148 is space debris in HEO originally from a launch on Thu, 11 Sep 2014 UTC launched from the French Guiana (FRGUI). Debris objects in space refer to the collection of defunct objects orbiting the Earth. Examples of debris include non-operational satellites, rocket bodies, and fragments generated from explosions, collisions, or faulty payload assembly.

Loading next visibility...
Identifier
40148, 2014-054C
Orbit
HEO
Country
Flag of FRFR
Related business
Manufacturer
ADS/LV
Mission
Spacecraft
Bus & Motor
ESC-A, Unknown motor
Mass
~5,000 kg wet, ~5,000 kg dry
Launch date (UTC)
2014-09-11 (12 years ago)
Launch vehicle
Unknown
Launch site
French Guiana (FRGUI)
Object type
Payload
Rocket body
Debris
Shape & HBR
Cyl + 1 Nozzle, 4.4 m
Radar Cross Section
41.627 m², Large (>1 m²)

Expand to show TLE details & history
Last TLE update: 1 day ago

TLE from 1 day ago
0 ARIANE 5 R/B
1 40148U 14054C   26256.32529616  .00000964  00000-0  34512-3 0  9993
2 40148   6.1007 350.7271 7017058  94.1872 341.5673  2.61076992106139
Epoch: 2026-09-13T07:48Z
TLE epoch observation values (Epoch: 2026-09-13T07:48:25.588Z)
Latitude
-0°
Longitude
-118.64784°
Altitude
5,564.168 km
Speed
6.99 km/s
True Right ascension
23h 23m 07s
True Declination
0° 00' 00"
Sunlit
Object was in full shadow at epoch
Visualization orbit readout
Latitude
Unknown
Longitude
Unknown
Altitude
Unknown
Speed
Unknown
Apparent Right ascension
Unknown
Apparent Declination
Unknown
Sunlit
N/A
Visualization observer readout
Local Sidereal Time
02:59:27
Azimuth
Unknown
Elevation
Unknown
Doppler factor
Unknown
Orbital elements
Apogee altitude
31,542.79 km
Perigee altitude
269.071 km
Semi-major axis
22,284.067 km
Eccentricity
0.70171
Inclination
6.1007°
RAAN
350.7271°
Arg. of periapsis
94.1872°
True anomaly
265.70056°
Mean anomaly
341.5673°
Eccentric anomaly
311.41726°
Mean motion
0.65246 °/min
Orbital period
551.76 mins
BSTAR
0.00034512
Loading maneuver chart data...
Computing Atmospheric mass density...
Loading historical data...
Loading historical data...
Loading historical data...
Loading historical data...
Loading historical data...
Loading historical data...
Loading historical data...
Other satellites on launch #54 in the year 2014 (2014-09-11 UTC)

Documentation

Showing up to 5 results
|